Year,Month,Day,Hour,Minute,Value (Times are PST for temperature in C)
2011,07,03,00,00,15.80
2011,07,03,00,01,15.80
2011,07,03,00,02,15.80
2011,07,03,00,03,15.80
2011,07,03,00,04,15.80
2011,07,03,00,05,15.90
2011,07,03,00,06,15.90
2011,07,03,00,07,15.90
2011,07,03,00,08,15.90
2011,07,03,00,09,15.90
2011,07,03,00,10,16.00
2011,07,03,00,11,16.00
2011,07,03,00,12,16.00
2011,07,03,00,13,16.00
2011,07,03,00,14,16.00
2011,07,03,00,15,16.00
2011,07,03,00,16,16.00
2011,07,03,00,17,16.00
2011,07,03,00,18,16.00
2011,07,03,00,19,16.10
2011,07,03,00,20,16.10
2011,07,03,00,21,16.10
2011,07,03,00,22,16.10
2011,07,03,00,23,16.10
2011,07,03,00,24,16.10
2011,07,03,00,25,16.10
2011,07,03,00,26,16.10
2011,07,03,00,27,16.10
2011,07,03,00,28,16.10
2011,07,03,00,29,16.10
2011,07,03,00,30,16.10
2011,07,03,00,31,16.10
2011,07,03,00,32,16.10
2011,07,03,00,33,16.10
2011,07,03,00,34,16.10
2011,07,03,00,35,16.10
2011,07,03,00,36,16.10
2011,07,03,00,37,16.10
2011,07,03,00,38,16.10
2011,07,03,00,39,16.10
2011,07,03,00,40,16.10
2011,07,03,00,41,16.10
2011,07,03,00,42,16.10
2011,07,03,00,43,16.10
2011,07,03,00,44,16.10
2011,07,03,00,45,16.10
2011,07,03,00,46,16.10
2011,07,03,00,47,16.10
2011,07,03,00,48,16.10
2011,07,03,00,49,16.10
2011,07,03,00,50,16.10
2011,07,03,00,51,16.10
2011,07,03,00,52,16.10
2011,07,03,00,53,16.10
2011,07,03,00,54,16.10
2011,07,03,00,55,16.10
2011,07,03,00,56,16.10
2011,07,03,00,57,16.10
2011,07,03,00,58,16.10
2011,07,03,00,59,16.10
2011,07,03,01,00,16.10
2011,07,03,01,01,16.10
2011,07,03,01,02,16.10
2011,07,03,01,03,16.20
2011,07,03,01,04,16.20
2011,07,03,01,05,16.20
2011,07,03,01,06,16.20
2011,07,03,01,07,16.20
2011,07,03,01,08,16.20
2011,07,03,01,09,16.30
2011,07,03,01,10,16.30
2011,07,03,01,11,16.30
2011,07,03,01,12,16.30
2011,07,03,01,13,16.40
2011,07,03,01,14,16.40
2011,07,03,01,15,16.40
2011,07,03,01,16,16.40
2011,07,03,01,17,16.40
2011,07,03,01,18,16.40
2011,07,03,01,19,16.40
2011,07,03,01,20,16.40
2011,07,03,01,21,16.40
2011,07,03,01,22,16.40
2011,07,03,01,23,16.40
2011,07,03,01,24,16.40
2011,07,03,01,25,16.30
2011,07,03,01,26,16.30
2011,07,03,01,27,16.30
2011,07,03,01,28,16.30
2011,07,03,01,29,16.30
2011,07,03,01,30,16.30
2011,07,03,01,31,16.30
2011,07,03,01,32,16.30
2011,07,03,01,33,16.30
2011,07,03,01,34,16.20
2011,07,03,01,35,16.20
2011,07,03,01,36,16.20
2011,07,03,01,37,16.20
2011,07,03,01,38,16.20
2011,07,03,01,39,16.20
2011,07,03,01,40,16.20
2011,07,03,01,41,16.20
2011,07,03,01,42,16.20
2011,07,03,01,43,16.20
2011,07,03,01,44,16.20
2011,07,03,01,45,16.20
2011,07,03,01,46,16.20
2011,07,03,01,47,16.20
2011,07,03,01,48,16.20
2011,07,03,01,49,16.20
2011,07,03,01,50,16.20
2011,07,03,01,51,16.20
2011,07,03,01,52,16.20
2011,07,03,01,53,16.20
2011,07,03,01,54,16.20
2011,07,03,01,55,16.20
2011,07,03,01,56,16.20
2011,07,03,01,57,16.20
2011,07,03,01,58,16.30
2011,07,03,01,59,16.30
2011,07,03,02,00,16.30
2011,07,03,02,01,16.30
2011,07,03,02,02,16.30
2011,07,03,02,03,16.20
2011,07,03,02,04,16.20
2011,07,03,02,05,16.20
2011,07,03,02,06,16.20
2011,07,03,02,07,16.20
2011,07,03,02,08,16.20
2011,07,03,02,09,16.10
2011,07,03,02,10,16.10
2011,07,03,02,11,16.10
2011,07,03,02,12,16.20
2011,07,03,02,13,16.20
2011,07,03,02,14,16.20
2011,07,03,02,15,16.20
2011,07,03,02,16,16.20
2011,07,03,02,17,16.10
2011,07,03,02,18,16.10
2011,07,03,02,19,16.10
2011,07,03,02,20,16.10
2011,07,03,02,21,16.10
2011,07,03,02,22,16.10
2011,07,03,02,23,16.10
2011,07,03,02,24,16.10
2011,07,03,02,25,16.10
2011,07,03,02,26,16.10
2011,07,03,02,27,16.10
2011,07,03,02,28,16.10
2011,07,03,02,29,16.10
2011,07,03,02,30,16.10
2011,07,03,02,31,16.10
2011,07,03,02,32,16.10
2011,07,03,02,33,16.10
2011,07,03,02,34,16.10
2011,07,03,02,35,16.10
2011,07,03,02,36,16.10
2011,07,03,02,37,16.10
2011,07,03,02,38,16.10
2011,07,03,02,39,16.10
2011,07,03,02,40,16.10
2011,07,03,02,41,16.00
2011,07,03,02,42,16.00
2011,07,03,02,43,16.00
2011,07,03,02,44,16.00
2011,07,03,02,45,15.90
2011,07,03,02,46,15.90
2011,07,03,02,47,15.90
2011,07,03,02,48,15.90
2011,07,03,02,49,16.00
2011,07,03,02,50,16.00
2011,07,03,02,51,16.00
2011,07,03,02,52,16.00
2011,07,03,02,53,16.10
2011,07,03,02,54,16.10
2011,07,03,02,55,16.10
2011,07,03,02,56,16.10
2011,07,03,02,57,16.10
2011,07,03,02,58,16.10
2011,07,03,02,59,16.10
2011,07,03,03,00,16.20
2011,07,03,03,01,16.20
2011,07,03,03,02,16.20
2011,07,03,03,03,16.20
2011,07,03,03,04,16.20
2011,07,03,03,05,16.20
2011,07,03,03,06,16.20
2011,07,03,03,07,16.20
2011,07,03,03,08,16.20
2011,07,03,03,09,16.10
2011,07,03,03,10,16.10
2011,07,03,03,11,16.10
2011,07,03,03,12,16.10
2011,07,03,03,13,16.10
2011,07,03,03,14,16.10
2011,07,03,03,15,16.10
2011,07,03,03,16,16.10
2011,07,03,03,17,16.10
2011,07,03,03,18,16.10
2011,07,03,03,19,16.10
2011,07,03,03,20,16.10
2011,07,03,03,21,16.10
2011,07,03,03,22,16.10
2011,07,03,03,23,16.10
2011,07,03,03,24,16.10
2011,07,03,03,25,16.10
2011,07,03,03,26,16.20
2011,07,03,03,27,16.20
2011,07,03,03,28,16.20
2011,07,03,03,29,16.20
2011,07,03,03,30,16.20
2011,07,03,03,31,16.20
2011,07,03,03,32,16.20
2011,07,03,03,33,16.20
2011,07,03,03,34,16.20
2011,07,03,03,35,16.20
2011,07,03,03,36,16.20
2011,07,03,03,37,16.20
2011,07,03,03,38,16.20
2011,07,03,03,39,16.10
2011,07,03,03,40,16.10
2011,07,03,03,41,16.10
2011,07,03,03,42,16.10
2011,07,03,03,43,16.10
2011,07,03,03,44,16.10
2011,07,03,03,45,16.10
2011,07,03,03,46,16.10
2011,07,03,03,47,16.10
2011,07,03,03,48,16.10
2011,07,03,03,49,16.10
2011,07,03,03,50,16.00
2011,07,03,03,51,16.00
2011,07,03,03,52,16.00
2011,07,03,03,53,16.00
2011,07,03,03,54,16.00
2011,07,03,03,55,16.00
2011,07,03,03,56,16.00
2011,07,03,03,57,16.00
2011,07,03,03,58,16.00
2011,07,03,03,59,15.90
2011,07,03,04,00,16.00
2011,07,03,04,01,15.90
2011,07,03,04,02,15.90
2011,07,03,04,03,15.90
2011,07,03,04,04,15.90
2011,07,03,04,05,15.90
2011,07,03,04,06,15.90
2011,07,03,04,07,15.90
2011,07,03,04,08,15.80
2011,07,03,04,09,15.80
2011,07,03,04,10,15.80
2011,07,03,04,11,15.80
2011,07,03,04,12,15.80
2011,07,03,04,13,15.80
2011,07,03,04,14,15.70
2011,07,03,04,15,15.70
2011,07,03,04,16,15.70
2011,07,03,04,17,15.70
2011,07,03,04,18,15.70
2011,07,03,04,19,15.60
2011,07,03,04,20,15.60
2011,07,03,04,21,15.60
2011,07,03,04,22,15.60
2011,07,03,04,23,15.60
2011,07,03,04,24,15.50
2011,07,03,04,25,15.50
2011,07,03,04,26,15.50
2011,07,03,04,27,15.40
2011,07,03,04,28,15.40
2011,07,03,04,29,15.40
2011,07,03,04,30,15.40
2011,07,03,04,31,15.40
2011,07,03,04,32,15.30
2011,07,03,04,33,15.30
2011,07,03,04,34,15.30
2011,07,03,04,35,15.30
2011,07,03,04,36,15.30
2011,07,03,04,37,15.30
2011,07,03,04,38,15.30
2011,07,03,04,39,15.30
2011,07,03,04,40,15.30
2011,07,03,04,41,15.30
2011,07,03,04,42,15.20
2011,07,03,04,43,15.20
2011,07,03,04,44,15.20
2011,07,03,04,45,15.20
2011,07,03,04,46,15.20
2011,07,03,04,47,15.20
2011,07,03,04,48,15.20
2011,07,03,04,49,15.20
2011,07,03,04,50,15.20
2011,07,03,04,51,15.20
2011,07,03,04,52,15.10
2011,07,03,04,53,15.10
2011,07,03,04,54,15.00
2011,07,03,04,55,15.00
2011,07,03,04,56,15.00
2011,07,03,04,57,15.00
2011,07,03,04,58,15.00
2011,07,03,04,59,15.00
2011,07,03,05,00,15.00
2011,07,03,05,01,14.90
2011,07,03,05,02,14.90
2011,07,03,05,03,14.80
2011,07,03,05,04,14.80
2011,07,03,05,05,14.80
2011,07,03,05,06,14.70
2011,07,03,05,07,14.70
2011,07,03,05,08,14.70
2011,07,03,05,09,14.70
2011,07,03,05,10,14.70
2011,07,03,05,11,14.70
2011,07,03,05,12,14.70
2011,07,03,05,13,14.60
2011,07,03,05,14,14.60
2011,07,03,05,15,14.60
2011,07,03,05,16,14.60
2011,07,03,05,17,14.60
2011,07,03,05,18,14.60
2011,07,03,05,19,14.60
2011,07,03,05,20,14.60
2011,07,03,05,21,14.60
2011,07,03,05,22,14.60
2011,07,03,05,23,14.60
2011,07,03,05,24,14.60
2011,07,03,05,25,14.60
2011,07,03,05,26,14.60
2011,07,03,05,27,14.60
2011,07,03,05,28,14.50
2011,07,03,05,29,14.50
2011,07,03,05,30,14.50
2011,07,03,05,31,14.40
2011,07,03,05,32,14.40
2011,07,03,05,33,14.40
2011,07,03,05,34,14.30
2011,07,03,05,35,14.30
2011,07,03,05,36,14.30
2011,07,03,05,37,14.20
2011,07,03,05,38,14.20
2011,07,03,05,39,14.10
2011,07,03,05,40,14.00
2011,07,03,05,41,14.00
2011,07,03,05,42,13.90
2011,07,03,05,43,13.90
2011,07,03,05,44,13.80
2011,07,03,05,45,13.80
2011,07,03,05,46,13.80
2011,07,03,05,47,13.80
2011,07,03,05,48,13.80
2011,07,03,05,49,13.80
2011,07,03,05,50,13.80
2011,07,03,05,51,13.80
2011,07,03,05,52,13.80
2011,07,03,05,53,13.80
2011,07,03,05,54,13.80
2011,07,03,05,55,13.80
2011,07,03,05,56,13.80
2011,07,03,05,57,13.80
2011,07,03,05,58,13.90
2011,07,03,05,59,13.90
2011,07,03,06,00,13.90
2011,07,03,06,01,13.90
2011,07,03,06,02,13.90
2011,07,03,06,03,13.90
2011,07,03,06,04,14.00
2011,07,03,06,05,14.00
2011,07,03,06,06,14.00
2011,07,03,06,07,14.00
2011,07,03,06,08,14.00
2011,07,03,06,09,14.00
2011,07,03,06,10,14.00
2011,07,03,06,11,14.00
2011,07,03,06,12,14.00
2011,07,03,06,13,14.00
2011,07,03,06,14,14.00
2011,07,03,06,15,14.00
2011,07,03,06,16,13.90
2011,07,03,06,17,13.90
2011,07,03,06,18,13.90
2011,07,03,06,19,13.90
2011,07,03,06,20,13.90
2011,07,03,06,21,13.90
2011,07,03,06,22,13.90
2011,07,03,06,23,13.90
2011,07,03,06,24,13.90
2011,07,03,06,25,13.90
2011,07,03,06,26,13.90
2011,07,03,06,27,13.90
2011,07,03,06,28,13.90
2011,07,03,06,29,13.90
2011,07,03,06,30,13.90
2011,07,03,06,31,13.90
2011,07,03,06,32,13.90
2011,07,03,06,33,13.90
2011,07,03,06,34,13.90
2011,07,03,06,35,13.90
2011,07,03,06,36,13.90
2011,07,03,06,37,13.90
2011,07,03,06,38,13.90
2011,07,03,06,39,13.90
2011,07,03,06,40,13.90
2011,07,03,06,41,13.90
2011,07,03,06,42,13.90
2011,07,03,06,43,13.90
2011,07,03,06,44,13.90
2011,07,03,06,45,13.90
2011,07,03,06,46,13.90
2011,07,03,06,47,13.90
2011,07,03,06,48,13.90
2011,07,03,06,49,13.90
2011,07,03,06,50,13.90
2011,07,03,06,51,13.90
2011,07,03,06,52,13.90
2011,07,03,06,53,13.90
2011,07,03,06,54,13.90
2011,07,03,06,55,13.90
2011,07,03,06,56,13.90
2011,07,03,06,57,13.90
2011,07,03,06,58,13.90
2011,07,03,06,59,13.90
2011,07,03,07,00,13.90
2011,07,03,07,01,13.90
2011,07,03,07,02,13.90
2011,07,03,07,03,13.90
2011,07,03,07,04,13.90
2011,07,03,07,05,13.90
2011,07,03,07,06,13.80
2011,07,03,07,07,13.80
2011,07,03,07,08,13.80
2011,07,03,07,09,13.80
2011,07,03,07,10,13.80
2011,07,03,07,11,13.80
2011,07,03,07,12,13.70
2011,07,03,07,13,13.70
2011,07,03,07,14,13.70
2011,07,03,07,15,13.70
2011,07,03,07,16,13.70
2011,07,03,07,17,13.70
2011,07,03,07,18,13.70
2011,07,03,07,19,13.70
2011,07,03,07,20,13.70
2011,07,03,07,21,13.70
2011,07,03,07,22,13.70
2011,07,03,07,23,13.70
2011,07,03,07,24,13.70
2011,07,03,07,25,13.70
2011,07,03,07,26,13.70
2011,07,03,07,27,13.70
2011,07,03,07,28,13.70
2011,07,03,07,29,13.70
2011,07,03,07,30,13.70
2011,07,03,07,31,13.70
2011,07,03,07,32,13.70
2011,07,03,07,33,13.70
2011,07,03,07,34,13.70
2011,07,03,07,35,13.70
2011,07,03,07,36,13.80
2011,07,03,07,37,13.80
2011,07,03,07,38,13.80
2011,07,03,07,39,13.80
2011,07,03,07,40,13.90
2011,07,03,07,41,13.90
2011,07,03,07,42,13.90
2011,07,03,07,43,14.00
2011,07,03,07,44,14.00
2011,07,03,07,45,14.10
2011,07,03,07,46,14.10
2011,07,03,07,47,14.10
2011,07,03,07,48,14.20
2011,07,03,07,49,14.20
2011,07,03,07,50,14.20
2011,07,03,07,51,14.20
2011,07,03,07,52,14.20
2011,07,03,07,53,14.30
2011,07,03,07,54,14.30
2011,07,03,07,55,14.30
2011,07,03,07,56,14.30
2011,07,03,07,57,14.20
2011,07,03,07,58,14.20
2011,07,03,07,59,14.20
2011,07,03,08,00,14.20
2011,07,03,08,01,14.20
2011,07,03,08,02,14.20
2011,07,03,08,03,14.30
2011,07,03,08,04,14.30
2011,07,03,08,05,14.30
2011,07,03,08,06,14.40
2011,07,03,08,07,14.40
2011,07,03,08,08,14.50
2011,07,03,08,09,14.60
2011,07,03,08,10,14.60
2011,07,03,08,11,14.70
2011,07,03,08,12,14.70
2011,07,03,08,13,14.80
2011,07,03,08,14,14.90
2011,07,03,08,15,14.90
2011,07,03,08,16,15.00
2011,07,03,08,17,15.00
2011,07,03,08,18,15.00
2011,07,03,08,19,15.00
2011,07,03,08,20,15.00
2011,07,03,08,21,15.00
2011,07,03,08,22,15.00
2011,07,03,08,23,15.00
2011,07,03,08,24,15.00
2011,07,03,08,25,15.00
2011,07,03,08,26,15.00
2011,07,03,08,27,15.00
2011,07,03,08,28,15.00
2011,07,03,08,29,15.10
2011,07,03,08,30,15.10
2011,07,03,08,31,15.10
2011,07,03,08,32,15.20
2011,07,03,08,33,15.20
2011,07,03,08,34,15.20
2011,07,03,08,35,15.30
2011,07,03,08,36,15.30
2011,07,03,08,37,15.30
2011,07,03,08,38,15.40
2011,07,03,08,39,15.50
2011,07,03,08,40,15.50
2011,07,03,08,41,15.60
2011,07,03,08,42,15.60
2011,07,03,08,43,15.70
2011,07,03,08,44,15.70
2011,07,03,08,45,15.70
2011,07,03,08,46,15.70
2011,07,03,08,47,15.80
2011,07,03,08,48,15.80
2011,07,03,08,49,15.80
2011,07,03,08,50,15.80
2011,07,03,08,51,15.80
2011,07,03,08,52,15.80
2011,07,03,08,53,15.80
2011,07,03,08,54,15.90
2011,07,03,08,55,15.90
2011,07,03,08,56,15.90
2011,07,03,08,57,15.90
2011,07,03,08,58,15.90
2011,07,03,08,59,15.90
2011,07,03,09,00,15.90
2011,07,03,09,01,15.90
2011,07,03,09,02,15.90
2011,07,03,09,03,15.90
2011,07,03,09,04,15.90
2011,07,03,09,05,16.00
2011,07,03,09,06,16.00
2011,07,03,09,07,16.00
2011,07,03,09,08,16.00
2011,07,03,09,09,16.00
2011,07,03,09,10,16.00
2011,07,03,09,11,16.00
2011,07,03,09,12,16.00
2011,07,03,09,13,16.10
2011,07,03,09,14,16.10
2011,07,03,09,15,16.10
2011,07,03,09,16,16.20
2011,07,03,09,17,16.20
2011,07,03,09,18,16.30
2011,07,03,09,19,16.30
2011,07,03,09,20,16.30
2011,07,03,09,21,16.40
2011,07,03,09,22,16.40
2011,07,03,09,23,16.40
2011,07,03,09,24,16.50
2011,07,03,09,25,16.60
2011,07,03,09,26,16.60
2011,07,03,09,27,16.70
2011,07,03,09,28,16.70
2011,07,03,09,29,16.70
2011,07,03,09,30,16.70
2011,07,03,09,31,16.70
2011,07,03,09,32,16.70
2011,07,03,09,33,16.70
2011,07,03,09,34,16.70
2011,07,03,09,35,16.70
2011,07,03,09,36,16.80
2011,07,03,09,37,16.80
2011,07,03,09,38,16.80
2011,07,03,09,39,16.80
2011,07,03,09,40,16.80
2011,07,03,09,41,16.90
2011,07,03,09,42,16.90
2011,07,03,09,43,17.00
2011,07,03,09,44,17.10
2011,07,03,09,45,17.10
2011,07,03,09,46,17.10
2011,07,03,09,47,17.00
2011,07,03,09,48,17.00
2011,07,03,09,49,17.00
2011,07,03,09,50,17.10
2011,07,03,09,51,17.10
2011,07,03,09,52,17.20
2011,07,03,09,53,17.20
2011,07,03,09,54,17.10
2011,07,03,09,55,17.10
2011,07,03,09,56,17.10
2011,07,03,09,57,17.10
2011,07,03,09,58,17.10
2011,07,03,09,59,17.10
2011,07,03,10,00,17.10
2011,07,03,10,01,17.00
2011,07,03,10,02,17.10
2011,07,03,10,03,17.10
2011,07,03,10,04,17.10
2011,07,03,10,05,17.00
2011,07,03,10,06,17.00
2011,07,03,10,07,17.00
2011,07,03,10,08,17.00
2011,07,03,10,09,17.10
2011,07,03,10,10,17.10
2011,07,03,10,11,17.20
2011,07,03,10,12,17.20
2011,07,03,10,13,17.20
2011,07,03,10,14,17.20
2011,07,03,10,15,17.30
2011,07,03,10,16,17.30
2011,07,03,10,17,17.30
2011,07,03,10,18,17.30
2011,07,03,10,19,17.30
2011,07,03,10,20,17.30
2011,07,03,10,21,17.30
2011,07,03,10,22,17.30
2011,07,03,10,23,17.30
2011,07,03,10,24,17.30
2011,07,03,10,25,17.30
2011,07,03,10,26,17.40
2011,07,03,10,27,17.40
2011,07,03,10,28,17.40
2011,07,03,10,29,17.40
2011,07,03,10,30,17.40
2011,07,03,10,31,17.40
2011,07,03,10,32,17.40
2011,07,03,10,33,17.40
2011,07,03,10,34,17.40
2011,07,03,10,35,17.40
2011,07,03,10,36,17.40
2011,07,03,10,37,17.40
2011,07,03,10,38,17.40
2011,07,03,10,39,17.50
2011,07,03,10,40,17.60
2011,07,03,10,41,17.60
2011,07,03,10,42,17.60
2011,07,03,10,43,17.60
2011,07,03,10,44,17.50
2011,07,03,10,45,17.40
2011,07,03,10,46,17.40
2011,07,03,10,47,17.50
2011,07,03,10,48,17.60
2011,07,03,10,49,17.60
2011,07,03,10,50,17.70
2011,07,03,10,51,17.80
2011,07,03,10,52,17.80
2011,07,03,10,53,17.80
2011,07,03,10,54,17.90
2011,07,03,10,55,18.00
2011,07,03,10,56,18.10
2011,07,03,10,57,18.10
2011,07,03,10,58,18.10
2011,07,03,10,59,18.20
2011,07,03,11,00,18.10
2011,07,03,11,01,18.00
2011,07,03,11,02,17.90
2011,07,03,11,03,17.90
2011,07,03,11,04,17.90
2011,07,03,11,05,17.90
2011,07,03,11,06,17.90
2011,07,03,11,07,17.80
2011,07,03,11,08,17.80
2011,07,03,11,09,17.70
2011,07,03,11,10,17.70
2011,07,03,11,11,17.70
2011,07,03,11,12,17.70
2011,07,03,11,13,17.70
2011,07,03,11,14,17.70
2011,07,03,11,15,17.80
2011,07,03,11,16,17.80
2011,07,03,11,17,17.80
2011,07,03,11,18,17.70
2011,07,03,11,19,17.70
2011,07,03,11,20,17.70
2011,07,03,11,21,17.60
2011,07,03,11,22,17.60
2011,07,03,11,23,17.60
2011,07,03,11,24,17.60
2011,07,03,11,25,17.60
2011,07,03,11,26,17.70
2011,07,03,11,27,17.70
2011,07,03,11,28,17.70
2011,07,03,11,29,17.60
2011,07,03,11,30,17.60
2011,07,03,11,31,17.60
2011,07,03,11,32,17.70
2011,07,03,11,33,17.70
2011,07,03,11,34,17.80
2011,07,03,11,35,17.80
2011,07,03,11,36,17.90
2011,07,03,11,37,18.00
2011,07,03,11,38,18.10
2011,07,03,11,39,18.20
2011,07,03,11,40,18.30
2011,07,03,11,41,18.20
2011,07,03,11,42,18.10
2011,07,03,11,43,18.00
2011,07,03,11,44,17.90
2011,07,03,11,45,18.00
2011,07,03,11,46,18.10
2011,07,03,11,47,18.20
2011,07,03,11,48,18.30
2011,07,03,11,49,18.40
2011,07,03,11,50,18.50
2011,07,03,11,51,18.50
2011,07,03,11,52,18.60
2011,07,03,11,53,18.60
2011,07,03,11,54,18.60
2011,07,03,11,55,18.50
2011,07,03,11,56,18.50
2011,07,03,11,57,18.40
2011,07,03,11,58,18.40
2011,07,03,11,59,18.40
2011,07,03,12,00,18.50
2011,07,03,12,01,18.50
2011,07,03,12,02,18.50
2011,07,03,12,03,18.60
2011,07,03,12,04,18.60
2011,07,03,12,05,18.70
2011,07,03,12,06,18.70
2011,07,03,12,07,18.90
2011,07,03,12,08,19.00
2011,07,03,12,09,19.00
2011,07,03,12,10,19.00
2011,07,03,12,11,19.00
2011,07,03,12,12,18.90
2011,07,03,12,13,18.80
2011,07,03,12,14,18.70
2011,07,03,12,15,18.80
2011,07,03,12,16,18.80
2011,07,03,12,17,18.80
2011,07,03,12,18,18.80
2011,07,03,12,19,18.70
2011,07,03,12,20,18.70
2011,07,03,12,21,18.60
2011,07,03,12,22,18.60
2011,07,03,12,23,18.70
2011,07,03,12,24,18.70
2011,07,03,12,25,18.70
2011,07,03,12,26,18.70
2011,07,03,12,27,18.80
2011,07,03,12,28,18.90
2011,07,03,12,29,18.90
2011,07,03,12,30,18.90
2011,07,03,12,31,19.00
2011,07,03,12,32,18.90
2011,07,03,12,33,18.80
2011,07,03,12,34,18.80
2011,07,03,12,35,18.90
2011,07,03,12,36,18.90
2011,07,03,12,37,18.90
2011,07,03,12,38,18.90
2011,07,03,12,39,18.90
2011,07,03,12,40,18.90
2011,07,03,12,41,18.80
2011,07,03,12,42,18.80
2011,07,03,12,43,18.70
2011,07,03,12,44,18.60
2011,07,03,12,45,18.70
2011,07,03,12,46,18.80
2011,07,03,12,47,19.00
2011,07,03,12,48,19.20
2011,07,03,12,49,19.30
2011,07,03,12,50,19.30
2011,07,03,12,51,19.30
2011,07,03,12,52,19.40
2011,07,03,12,53,19.40
2011,07,03,12,54,19.40
2011,07,03,12,55,19.40
2011,07,03,12,56,19.30
2011,07,03,12,57,19.40
2011,07,03,12,58,19.50
2011,07,03,12,59,19.60
2011,07,03,13,00,19.80
2011,07,03,13,01,19.80
2011,07,03,13,02,19.80
2011,07,03,13,03,19.80
2011,07,03,13,04,19.90
2011,07,03,13,05,20.00
2011,07,03,13,06,20.00
2011,07,03,13,07,20.00
2011,07,03,13,08,19.90
2011,07,03,13,09,19.80
2011,07,03,13,10,19.70
2011,07,03,13,11,19.60
2011,07,03,13,12,19.50
2011,07,03,13,13,19.50
2011,07,03,13,14,19.50
2011,07,03,13,15,19.60
2011,07,03,13,16,19.60
2011,07,03,13,17,19.70
2011,07,03,13,18,19.70
2011,07,03,13,19,19.80
2011,07,03,13,20,19.80
2011,07,03,13,21,19.90
2011,07,03,13,22,19.90
2011,07,03,13,23,19.90
2011,07,03,13,24,19.80
2011,07,03,13,25,19.80
2011,07,03,13,26,19.80
2011,07,03,13,27,19.70
2011,07,03,13,28,19.60
2011,07,03,13,29,19.60
2011,07,03,13,30,19.60
2011,07,03,13,31,19.70
2011,07,03,13,32,19.80
2011,07,03,13,33,20.00
2011,07,03,13,34,20.10
2011,07,03,13,35,20.20
2011,07,03,13,36,20.30
2011,07,03,13,37,20.40
2011,07,03,13,38,20.40
2011,07,03,13,39,20.30
2011,07,03,13,40,20.30
2011,07,03,13,41,20.30
2011,07,03,13,42,20.30
2011,07,03,13,43,20.30
2011,07,03,13,44,20.30
2011,07,03,13,45,20.30
2011,07,03,13,46,20.40
2011,07,03,13,47,20.40
2011,07,03,13,48,20.50
2011,07,03,13,49,20.50
2011,07,03,13,50,20.60
2011,07,03,13,51,20.70
2011,07,03,13,52,20.70
2011,07,03,13,53,20.70
2011,07,03,13,54,20.80
2011,07,03,13,55,20.80
2011,07,03,13,56,20.70
2011,07,03,13,57,20.60
2011,07,03,13,58,20.70
2011,07,03,13,59,20.80
2011,07,03,14,00,20.80
2011,07,03,14,01,20.80
2011,07,03,14,02,20.70
2011,07,03,14,03,20.50
2011,07,03,14,04,20.40
2011,07,03,14,05,20.40
2011,07,03,14,06,20.50
2011,07,03,14,07,20.50
2011,07,03,14,08,20.50
2011,07,03,14,09,20.60
2011,07,03,14,10,20.60
2011,07,03,14,11,20.60
2011,07,03,14,12,20.50
2011,07,03,14,13,20.40
2011,07,03,14,14,20.30
2011,07,03,14,15,20.30
2011,07,03,14,16,20.40
2011,07,03,14,17,20.40
2011,07,03,14,18,20.40
2011,07,03,14,19,20.40
2011,07,03,14,20,20.50
2011,07,03,14,21,20.50
2011,07,03,14,22,20.50
2011,07,03,14,23,20.50
2011,07,03,14,24,20.50
2011,07,03,14,25,20.50
2011,07,03,14,26,20.50
2011,07,03,14,27,20.40
2011,07,03,14,28,20.50
2011,07,03,14,29,20.50
2011,07,03,14,30,20.60
2011,07,03,14,31,20.40
2011,07,03,14,32,20.40
2011,07,03,14,33,20.40
2011,07,03,14,34,20.30
2011,07,03,14,35,20.40
2011,07,03,14,36,20.40
2011,07,03,14,37,20.40
2011,07,03,14,38,20.40
2011,07,03,14,39,20.40
2011,07,03,14,40,20.50
2011,07,03,14,41,20.50
2011,07,03,14,42,20.50
2011,07,03,14,43,20.50
2011,07,03,14,44,20.50
2011,07,03,14,45,20.40
2011,07,03,14,46,20.40
2011,07,03,14,47,20.40
2011,07,03,14,48,20.40
2011,07,03,14,49,20.40
2011,07,03,14,50,20.50
2011,07,03,14,51,20.50
2011,07,03,14,52,20.60
2011,07,03,14,53,20.70
2011,07,03,14,54,20.70
2011,07,03,14,55,20.70
2011,07,03,14,56,20.80
2011,07,03,14,57,20.80
2011,07,03,14,58,20.80
2011,07,03,14,59,20.80
2011,07,03,15,00,20.70
2011,07,03,15,01,20.70
2011,07,03,15,02,20.60
2011,07,03,15,03,20.70
2011,07,03,15,04,20.90
2011,07,03,15,05,21.00
2011,07,03,15,06,21.20
2011,07,03,15,07,21.30
2011,07,03,15,08,21.40
2011,07,03,15,09,21.30
2011,07,03,15,10,21.40
2011,07,03,15,11,21.40
2011,07,03,15,12,21.50
2011,07,03,15,13,21.50
2011,07,03,15,14,21.50
2011,07,03,15,15,21.60
2011,07,03,15,16,21.60
2011,07,03,15,17,21.50
2011,07,03,15,18,21.40
2011,07,03,15,19,21.20
2011,07,03,15,20,21.10
2011,07,03,15,21,21.10
2011,07,03,15,22,21.00
2011,07,03,15,23,20.90
2011,07,03,15,24,20.80
2011,07,03,15,25,20.80
2011,07,03,15,26,20.90
2011,07,03,15,27,20.90
2011,07,03,15,28,21.00
2011,07,03,15,29,21.00
2011,07,03,15,30,21.00
2011,07,03,15,31,21.00
2011,07,03,15,32,20.80
2011,07,03,15,33,20.80
2011,07,03,15,34,20.80
2011,07,03,15,35,20.80
2011,07,03,15,36,20.80
2011,07,03,15,37,20.80
2011,07,03,15,38,20.80
2011,07,03,15,39,20.90
2011,07,03,15,40,21.00
2011,07,03,15,41,21.10
2011,07,03,15,42,21.20
2011,07,03,15,43,21.10
2011,07,03,15,44,21.10
2011,07,03,15,45,21.10
2011,07,03,15,46,21.10
2011,07,03,15,47,21.00
2011,07,03,15,48,21.00
2011,07,03,15,49,21.10
2011,07,03,15,50,21.10
2011,07,03,15,51,21.00
2011,07,03,15,52,20.80
2011,07,03,15,53,20.70
2011,07,03,15,54,20.70
2011,07,03,15,55,20.60
2011,07,03,15,56,20.70
2011,07,03,15,57,20.80
2011,07,03,15,58,20.80
2011,07,03,15,59,20.80
2011,07,03,16,00,20.80
2011,07,03,16,01,20.80
2011,07,03,16,02,20.90
2011,07,03,16,03,20.80
2011,07,03,16,04,20.80
2011,07,03,16,05,20.80
2011,07,03,16,06,20.70
2011,07,03,16,07,20.60
2011,07,03,16,08,20.50
2011,07,03,16,09,20.40
2011,07,03,16,10,20.40
2011,07,03,16,11,20.30
2011,07,03,16,12,20.30
2011,07,03,16,13,20.30
2011,07,03,16,14,20.30
2011,07,03,16,15,20.20
2011,07,03,16,16,20.10
2011,07,03,16,17,20.00
2011,07,03,16,18,20.00
2011,07,03,16,19,20.00
2011,07,03,16,20,20.10
2011,07,03,16,21,20.10
2011,07,03,16,22,20.20
2011,07,03,16,23,20.20
2011,07,03,16,24,20.30
2011,07,03,16,25,20.40
2011,07,03,16,26,20.50
2011,07,03,16,27,20.70
2011,07,03,16,28,20.70
2011,07,03,16,29,20.80
2011,07,03,16,30,20.90
2011,07,03,16,31,21.00
2011,07,03,16,32,21.00
2011,07,03,16,33,20.90
2011,07,03,16,34,20.70
2011,07,03,16,35,20.60
2011,07,03,16,36,20.30
2011,07,03,16,37,20.10
2011,07,03,16,38,20.00
2011,07,03,16,39,20.00
2011,07,03,16,40,20.00
2011,07,03,16,41,19.90
2011,07,03,16,42,20.00
2011,07,03,16,43,20.00
2011,07,03,16,44,20.10
2011,07,03,16,45,20.10
2011,07,03,16,46,20.20
2011,07,03,16,47,20.10
2011,07,03,16,48,20.00
2011,07,03,16,49,20.00
2011,07,03,16,50,20.00
2011,07,03,16,51,20.00
2011,07,03,16,52,20.10
2011,07,03,16,53,20.20
2011,07,03,16,54,20.20
2011,07,03,16,55,20.20
2011,07,03,16,56,20.20
2011,07,03,16,57,20.40
2011,07,03,16,58,20.50
2011,07,03,16,59,20.60
2011,07,03,17,00,20.60
2011,07,03,17,01,20.50
2011,07,03,17,02,20.50
2011,07,03,17,03,20.50
2011,07,03,17,04,20.50
2011,07,03,17,05,20.60
2011,07,03,17,06,20.60
2011,07,03,17,07,20.60
2011,07,03,17,08,20.70
2011,07,03,17,09,20.70
2011,07,03,17,10,20.70
2011,07,03,17,11,20.70
2011,07,03,17,12,20.70
2011,07,03,17,13,20.70
2011,07,03,17,14,20.70
2011,07,03,17,15,20.60
2011,07,03,17,16,20.50
2011,07,03,17,17,20.40
2011,07,03,17,18,20.50
2011,07,03,17,19,20.50